DLH7LA EDDF-EDDB

Flight info

Callsign DLH7LA
Flight time 0h 46m
Altitude 31000
Route TOBAK3W TOBAK N858 SWALM T201 TAMEB T278 KLF KLF1R
Aircraft A320/M-SDE3FGHIRWY/LB1

Departure

Time 2026-04-18 08:54
Airport Frankfurt Main Airport (EDDF)

Arrival

Time 2026-04-18 09:40
Airport Berlin Brandenburg Airport (EDDB)
Time Latitude Longitude Altitude Speed Heading
2026-04-18 08:15 50.04037 8.55548 365 ft 0 kts 159°
2026-04-18 08:47 50.04009 8.55564 360 ft 11 kts 160°
2026-04-18 08:47 50.03976 8.55644 360 ft 9 kts 77°
2026-04-18 08:47 50.03997 8.55737 366 ft 11 kts 69°
2026-04-18 08:48 50.04039 8.55912 364 ft 20 kts 69°
2026-04-18 08:48 50.04093 8.56135 361 ft 25 kts 69°
2026-04-18 08:48 50.04154 8.56394 365 ft 26 kts 69°
2026-04-18 08:48 50.04219 8.56666 368 ft 27 kts 70°
2026-04-18 08:49 50.04286 8.56946 365 ft 28 kts 69°
2026-04-18 08:49 50.04355 8.57237 367 ft 29 kts 69°
2026-04-18 08:49 50.04410 8.57466 362 ft 12 kts 70°
2026-04-18 08:49 50.04414 8.57480 366 ft 0 kts 70°
2026-04-18 08:52 50.04414 8.57484 365 ft 3 kts 70°
2026-04-18 08:52 50.04423 8.57596 363 ft 14 kts 107°
2026-04-18 08:52 50.04352 8.57675 366 ft 12 kts 159°
2026-04-18 08:52 50.04275 8.57671 365 ft 11 kts 216°
2026-04-18 08:53 50.04244 8.57569 363 ft 13 kts 249°
2026-04-18 08:53 50.04139 8.57133 370 ft 81 kts 250°
2026-04-18 08:53 50.03861 8.55973 361 ft 145 kts 250°
2026-04-18 08:53 50.03453 8.54279 519 ft 181 kts 251°
2026-04-18 08:54 50.02992 8.52320 984 ft 205 kts 248°
2026-04-18 08:54 50.02325 8.50331 1759 ft 208 kts 237°
2026-04-18 08:54 50.01373 8.48656 2634 ft 207 kts 219°
2026-04-18 08:54 50.00073 8.47722 3430 ft 209 kts 192°
2026-04-18 08:55 49.98630 8.47370 4171 ft 211 kts 189°
2026-04-18 08:55 49.97163 8.47078 4870 ft 217 kts 188°
2026-04-18 08:55 49.95598 8.46780 5356 ft 238 kts 189°
2026-04-18 08:55 49.93927 8.46291 6101 ft 249 kts 196°
2026-04-18 08:56 49.92282 8.45449 7139 ft 248 kts 203°
2026-04-18 08:56 49.90832 8.44021 8094 ft 250 kts 225°
2026-04-18 08:56 49.89909 8.41740 8992 ft 254 kts 252°
2026-04-18 08:56 49.89821 8.38985 9751 ft 267 kts 285°
2026-04-18 08:57 49.92567 8.35233 10952 ft 298 kts 336°
2026-04-18 08:57 49.94585 8.34001 11180 ft 323 kts 337°
2026-04-18 08:57 49.96729 8.32685 11713 ft 337 kts 336°
2026-04-18 08:58 49.98922 8.31353 12508 ft 340 kts 336°
2026-04-18 08:58 50.01140 8.30021 13371 ft 343 kts 336°
2026-04-18 08:58 50.03387 8.28714 14189 ft 346 kts 339°
2026-04-18 08:58 50.05786 8.28121 14886 ft 356 kts 358°
2026-04-18 08:59 50.08245 8.28844 15576 ft 366 kts 15°
2026-04-18 08:59 50.10661 8.30159 16274 ft 370 kts 16°
2026-04-18 08:59 50.13096 8.31519 16957 ft 374 kts 17°
2026-04-18 08:59 50.15554 8.32905 17624 ft 378 kts 17°
2026-04-18 09:00 50.18046 8.34310 18301 ft 382 kts 17°
2026-04-18 09:00 50.20563 8.35727 18887 ft 386 kts 17°
2026-04-18 09:00 50.23102 8.37156 19479 ft 390 kts 17°
2026-04-18 09:00 50.25665 8.38591 20075 ft 393 kts 17°
2026-04-18 09:01 50.28204 8.40240 20662 ft 400 kts 25°
2026-04-18 09:01 50.30572 8.42592 21244 ft 406 kts 36°
2026-04-18 09:01 50.32719 8.45501 21838 ft 411 kts 39°
2026-04-18 09:01 50.34861 8.48487 22429 ft 414 kts 39°
2026-04-18 09:02 50.37020 8.51492 22998 ft 417 kts 39°
2026-04-18 09:02 50.39201 8.54521 23530 ft 420 kts 39°
2026-04-18 09:02 50.41395 8.57570 24029 ft 424 kts 39°
2026-04-18 09:02 50.43610 8.60644 24464 ft 427 kts 39°
2026-04-18 09:03 50.45849 8.63731 24901 ft 429 kts 38°
2026-04-18 09:03 50.48129 8.66780 25311 ft 432 kts 38°
2026-04-18 09:03 50.50442 8.69815 25726 ft 435 kts 37°
2026-04-18 09:03 50.52779 8.72859 26125 ft 438 kts 37°
2026-04-18 09:04 50.55114 8.75955 26516 ft 442 kts 40°
2026-04-18 09:04 50.57214 8.79515 26906 ft 447 kts 50°
2026-04-18 09:04 50.58942 8.83604 27276 ft 452 kts 59°
2026-04-18 09:04 50.60452 8.87956 27650 ft 455 kts 60°
2026-04-18 09:05 50.61974 8.92347 28021 ft 457 kts 60°
2026-04-18 09:05 50.63503 8.96752 28393 ft 460 kts 60°
2026-04-18 09:05 50.65043 9.01187 28760 ft 462 kts 60°
2026-04-18 09:05 50.66587 9.05639 29107 ft 465 kts 60°
2026-04-18 09:06 50.68139 9.10131 29456 ft 467 kts 60°
2026-04-18 09:06 50.69696 9.14650 29794 ft 470 kts 60°
2026-04-18 09:06 50.71180 9.19256 30104 ft 473 kts 66°
2026-04-18 09:06 50.72273 9.24166 30386 ft 476 kts 74°
2026-04-18 09:07 50.73051 9.29257 30650 ft 478 kts 76°
2026-04-18 09:07 50.73819 9.34364 30918 ft 480 kts 76°
2026-04-18 09:07 50.74592 9.39498 31123 ft 481 kts 76°
2026-04-18 09:07 50.75360 9.44598 31182 ft 470 kts 76°
2026-04-18 09:08 50.76839 9.54485 31186 ft 459 kts 76°
2026-04-18 09:08 50.78295 9.64282 31178 ft 457 kts 76°
2026-04-18 09:09 50.79737 9.74056 31178 ft 457 kts 76°
2026-04-18 09:09 50.81181 9.83830 31183 ft 456 kts 76°
2026-04-18 09:10 50.82616 9.93604 31175 ft 456 kts 76°
2026-04-18 09:10 50.84028 10.03391 31173 ft 456 kts 78°
2026-04-18 09:11 50.84319 10.13372 31178 ft 456 kts 96°
2026-04-18 09:11 50.83741 10.23363 31168 ft 456 kts 95°
2026-04-18 09:12 50.83166 10.33351 31168 ft 456 kts 95°
2026-04-18 09:12 50.82579 10.43346 31170 ft 456 kts 95°
2026-04-18 09:13 50.81981 10.53344 31172 ft 456 kts 96°
2026-04-18 09:13 50.81375 10.63316 31172 ft 456 kts 95°
2026-04-18 09:14 50.81733 10.73280 31174 ft 455 kts 76°
2026-04-18 09:14 50.84009 10.82537 31175 ft 451 kts 59°
2026-04-18 09:15 50.87004 10.91341 31178 ft 451 kts 60°
2026-04-18 09:15 50.89929 11.00062 31179 ft 451 kts 60°
2026-04-18 09:16 50.92886 11.08916 31180 ft 452 kts 60°
2026-04-18 09:16 50.95807 11.17661 31180 ft 452 kts 60°
2026-04-18 09:17 50.98755 11.26524 31179 ft 451 kts 60°
2026-04-18 09:17 51.01685 11.35339 31178 ft 451 kts 60°
2026-04-18 09:18 51.04598 11.44155 31173 ft 451 kts 60°
2026-04-18 09:18 51.07501 11.52982 31170 ft 450 kts 60°
2026-04-18 09:19 51.10658 11.61534 30891 ft 447 kts 46°
2026-04-18 09:19 51.12937 11.64824 30405 ft 441 kts 34°
2026-04-18 09:19 51.15380 11.67791 29864 ft 441 kts 34°
2026-04-18 09:20 51.17807 11.70733 29304 ft 437 kts 34°
2026-04-18 09:20 51.20218 11.73658 28758 ft 433 kts 35°
2026-04-18 09:20 51.22605 11.76564 28219 ft 429 kts 35°
2026-04-18 09:20 51.24966 11.79444 27686 ft 425 kts 35°
2026-04-18 09:21 51.27306 11.82304 27166 ft 421 kts 35°
2026-04-18 09:21 51.29620 11.85135 26657 ft 418 kts 35°
2026-04-18 09:21 51.31916 11.87953 26154 ft 414 kts 35°
2026-04-18 09:21 51.34186 11.90750 25664 ft 410 kts 36°
2026-04-18 09:22 51.36436 11.93524 25182 ft 407 kts 36°
2026-04-18 09:22 51.38673 11.96280 24710 ft 404 kts 36°
2026-04-18 09:22 51.40886 11.99010 24236 ft 400 kts 36°
2026-04-18 09:22 51.43087 12.01728 23775 ft 397 kts 36°
2026-04-18 09:23 51.45267 12.04421 23231 ft 394 kts 36°
2026-04-18 09:23 51.47428 12.07097 22690 ft 392 kts 36°
2026-04-18 09:23 51.49582 12.09763 22160 ft 389 kts 36°
2026-04-18 09:23 51.51719 12.12412 21629 ft 387 kts 36°
2026-04-18 09:24 51.53836 12.15044 21190 ft 383 kts 36°
2026-04-18 09:24 51.55925 12.17648 20738 ft 379 kts 36°
2026-04-18 09:24 51.58006 12.20239 20289 ft 377 kts 36°
2026-04-18 09:24 51.60079 12.22819 20162 ft 376 kts 36°
2026-04-18 09:25 51.62152 12.25401 20188 ft 377 kts 36°
2026-04-18 09:25 51.64225 12.27995 20100 ft 376 kts 36°
2026-04-18 09:25 51.66273 12.30571 19631 ft 373 kts 36°
2026-04-18 09:25 51.68313 12.33141 19158 ft 371 kts 36°
2026-04-18 09:26 51.70346 12.35695 18694 ft 369 kts 36°
2026-04-18 09:26 51.72368 12.38229 18210 ft 367 kts 36°
2026-04-18 09:26 51.74380 12.40756 17707 ft 365 kts 36°
2026-04-18 09:26 51.76373 12.43266 17247 ft 362 kts 36°
2026-04-18 09:27 51.78352 12.45761 16772 ft 360 kts 36°
2026-04-18 09:27 51.80320 12.48240 16329 ft 357 kts 36°
2026-04-18 09:27 51.82273 12.50703 15891 ft 355 kts 36°
2026-04-18 09:27 51.84213 12.53153 15465 ft 353 kts 36°
2026-04-18 09:28 51.85491 12.54771 15182 ft 351 kts 36°
2026-04-18 09:28 51.88054 12.58023 14624 ft 349 kts 37°
2026-04-18 09:28 51.89954 12.60438 14220 ft 347 kts 37°
2026-04-18 09:28 51.91209 12.62034 13950 ft 345 kts 37°
2026-04-18 09:29 51.93095 12.64431 13480 ft 343 kts 37°
2026-04-18 09:29 51.94963 12.66807 13021 ft 341 kts 37°
2026-04-18 09:29 51.96819 12.69174 12560 ft 338 kts 37°
2026-04-18 09:29 51.98665 12.71527 12062 ft 337 kts 37°
2026-04-18 09:30 52.00518 12.73892 11432 ft 341 kts 37°
2026-04-18 09:30 52.02385 12.76282 10811 ft 343 kts 37°
2026-04-18 09:30 52.04264 12.78690 10206 ft 344 kts 37°
2026-04-18 09:30 52.06134 12.81088 9738 ft 340 kts 37°
2026-04-18 09:31 52.07964 12.83434 9391 ft 331 kts 37°
2026-04-18 09:31 52.09736 12.85708 9045 ft 316 kts 37°
2026-04-18 09:31 52.11410 12.87860 8707 ft 298 kts 37°
2026-04-18 09:31 52.12987 12.89889 8373 ft 282 kts 37°
2026-04-18 09:32 52.14489 12.91838 8042 ft 269 kts 37°
2026-04-18 09:32 52.15915 12.93699 7724 ft 257 kts 37°
2026-04-18 09:32 52.17290 12.95498 7285 ft 252 kts 37°
2026-04-18 09:32 52.18649 12.97273 6865 ft 247 kts 37°
2026-04-18 09:33 52.19980 12.99008 6445 ft 242 kts 37°
2026-04-18 09:33 52.21285 13.00709 6012 ft 239 kts 37°
2026-04-18 09:33 52.22585 13.02393 5582 ft 238 kts 37°
2026-04-18 09:33 52.23897 13.04074 5198 ft 235 kts 37°
2026-04-18 09:34 52.25171 13.05693 4811 ft 229 kts 37°
2026-04-18 09:34 52.26418 13.07277 4422 ft 226 kts 40°
2026-04-18 09:34 52.27350 13.09280 4052 ft 221 kts 68°
2026-04-18 09:34 52.27892 13.11545 4004 ft 204 kts 69°
2026-04-18 09:35 52.28393 13.13592 4016 ft 187 kts 68°
2026-04-18 09:35 52.28863 13.15528 4003 ft 182 kts 69°
2026-04-18 09:35 52.29325 13.17441 4003 ft 181 kts 69°
2026-04-18 09:35 52.29789 13.19362 3877 ft 182 kts 69°
2026-04-18 09:36 52.30249 13.21270 3670 ft 180 kts 69°
2026-04-18 09:36 52.30707 13.23173 3444 ft 179 kts 69°
2026-04-18 09:36 52.31162 13.25064 3207 ft 179 kts 70°
2026-04-18 09:36 52.31615 13.26948 2970 ft 178 kts 70°
2026-04-18 09:37 52.32066 13.28823 2735 ft 178 kts 70°
2026-04-18 09:37 52.32516 13.30699 2471 ft 175 kts 71°
2026-04-18 09:37 52.32938 13.32456 2258 ft 159 kts 71°
2026-04-18 09:37 52.33331 13.34098 2052 ft 152 kts 71°
2026-04-18 09:38 52.33709 13.35679 1837 ft 146 kts 71°
2026-04-18 09:38 52.34068 13.37179 1663 ft 139 kts 71°
2026-04-18 09:38 52.34415 13.38632 1471 ft 137 kts 70°
2026-04-18 09:38 52.34760 13.40075 1288 ft 135 kts 70°
2026-04-18 09:39 52.35101 13.41505 1100 ft 135 kts 71°
2026-04-18 09:39 52.35442 13.42931 934 ft 134 kts 70°
2026-04-18 09:39 52.35784 13.44342 736 ft 133 kts 71°
2026-04-18 09:39 52.36109 13.45756 532 ft 132 kts 71°
2026-04-18 09:40 52.36451 13.47146 359 ft 132 kts 71°
2026-04-18 09:40 52.36779 13.48529 204 ft 130 kts 71°
2026-04-18 09:40 52.37077 13.49800 163 ft 98 kts 69°
2026-04-18 09:40 52.37264 13.50580 159 ft 49 kts 68°
2026-04-18 09:41 52.37304 13.50911 161 ft 24 kts 88°
2026-04-18 09:41 52.37290 13.51152 158 ft 14 kts 102°
2026-04-18 09:41 52.37287 13.51183 158 ft 0 kts 100°
2026-04-18 09:42 52.37284 13.51209 158 ft 5 kts 100°
2026-04-18 09:42 52.37264 13.51298 159 ft 12 kts 138°
2026-04-18 09:42 52.37187 13.51227 159 ft 20 kts 244°
2026-04-18 09:42 52.37123 13.50970 155 ft 28 kts 248°
2026-04-18 09:43 52.37049 13.50665 157 ft 30 kts 248°
2026-04-18 09:43 52.36966 13.50328 161 ft 29 kts 248°
2026-04-18 09:43 52.36936 13.50206 161 ft 0 kts 248°
2026-04-18 09:44 52.36927 13.50172 161 ft 11 kts 247°
2026-04-18 09:44 52.36838 13.50155 159 ft 17 kts 162°
2026-04-18 09:44 52.36708 13.50172 153 ft 21 kts 179°
2026-04-18 09:45 52.36601 13.50222 152 ft 14 kts 160°
2026-04-18 09:45 52.36515 13.50278 152 ft 10 kts 147°
2026-04-18 09:45 52.36514 13.50393 152 ft 12 kts 68°
2026-04-18 09:45 52.36539 13.50501 152 ft 4 kts 69°
2026-04-18 09:46 52.36543 13.50516 152 ft 1 kts 70°
2026-04-18 09:46 52.36543 13.50517 152 ft 0 kts 70°